Diretta Meteo Brindisi, Italiadomenica 26 maggio ore 04:50

Mappa
Sereno 18 °C Sereno 24 Ore: T.min 14 T.max 23
Ponente Sud/Sud-Est Km/h 13 Punto di rugiada: 16 °C Umidità: 88% Visibilità: 9 Km
Il sole sorge alle: 05:20 Il sole tramonta alle: 20:09
26 Maggio 2019 04:50 tempo osservato: Sereno Sereno 18 88 1014 vento: Nord S/SE 13
26 Maggio 2019 04:20 tempo osservato: Pioggia Debole Pioggia Debole 18 88 1014 vento: Nord S/SE 14.8
26 Maggio 2019 03:50 tempo osservato: Sereno Sereno 18 88 1014 vento: Nord SE 13
26 Maggio 2019 02:50 tempo osservato: Sereno Sereno 18 88 1014 vento: Nord SE 11.1
26 Maggio 2019 02:20 tempo osservato: Sereno Sereno 18 88 1015 vento: Nord SE 13
26 Maggio 2019 01:50 tempo osservato: Sereno Sereno 18 88 1015 vento: Nord S/SE 11.1
26 Maggio 2019 01:20 tempo osservato: Sereno Sereno 18 88 1015 vento: Nord S/SE 9.3
26 Maggio 2019 00:50 tempo osservato: Sereno Sereno 18 88 1015 vento: Nord S/SE 9.3
26 Maggio 2019 00:20 tempo osservato: Sereno Sereno 19 82 1015 vento: Nord S 13
25 Maggio 2019 23:50 tempo osservato: Sereno Sereno 19 82 1015 vento: Nord S/SO 14.8
25 Maggio 2019 23:20 tempo osservato: Sereno Sereno 19 77 1015 vento: Nord S/SO 14.8
25 Maggio 2019 22:50 tempo osservato: Sereno Sereno 19 82 1015 vento: Nord S/SO 20.3
25 Maggio 2019 22:20 tempo osservato: Sereno Sereno 19 82 1015 vento: Nord S 16.7
25 Maggio 2019 21:50 tempo osservato: Sereno Sereno 19 82 1015 vento: Nord S/SO 18.5
25 Maggio 2019 21:20 tempo osservato: Sereno Sereno 20 72 1015 vento: Nord S/SO 16.7
25 Maggio 2019 20:50 tempo osservato: Sereno Sereno 21 56 1014 vento: Nord S 14.8
25 Maggio 2019 20:20 tempo osservato: Sereno Sereno 22 40 1014 vento: Nord S/SO 13
25 Maggio 2019 19:50 tempo osservato: Sereno Sereno 22 46 1014 vento: Nord S 9.3
25 Maggio 2019 19:20 tempo osservato: Sereno Sereno 23 43 1014 vento: Nord S 13
25 Maggio 2019 18:20 tempo osservato: Sereno Sereno 22 64 1014 vento: Nord SE 13
25 Maggio 2019 17:50 tempo osservato: Sereno Sereno 23 56 1014 vento: Nord SE 16.7
25 Maggio 2019 17:20 tempo osservato: Sereno Sereno 23 56 1014 vento: Nord SE 14.8
25 Maggio 2019 16:50 tempo osservato: Poco Nuvoloso Poco Nuvoloso 23 56 1014 vento: Nord SE 18.5
25 Maggio 2019 16:20 tempo osservato: Poco Nuvoloso Poco Nuvoloso 22 60 1014 vento: Nord E/SE 16.7
25 Maggio 2019 15:50 tempo osservato: Poco Nuvoloso Poco Nuvoloso 22 64 1015 vento: Nord E/SE 14.8
25 Maggio 2019 15:20 tempo osservato: Poco Nuvoloso Poco Nuvoloso 23 64 1015 vento: Nord E 14.8
25 Maggio 2019 14:50 tempo osservato: Poco Nuvoloso Poco Nuvoloso 22 64 1015 vento: Nord E/SE 20.3
25 Maggio 2019 14:20 tempo osservato: Poco Nuvoloso Poco Nuvoloso 22 64 1015 vento: Nord E 14.8
25 Maggio 2019 13:50 tempo osservato: Poco Nuvoloso Poco Nuvoloso 22 64 1015 vento: Nord E 16.7
25 Maggio 2019 13:20 tempo osservato: Poco Nuvoloso Poco Nuvoloso 22 60 1015 vento: Nord E/SE 16.7
25 Maggio 2019 12:50 tempo osservato: Poco Nuvoloso Poco Nuvoloso 22 64 1015 vento: Nord E 16.7
25 Maggio 2019 12:20 tempo osservato: Poco Nuvoloso Poco Nuvoloso 22 68 1015 vento: Nord E 16.7
25 Maggio 2019 11:50 tempo osservato: Poco Nuvoloso Poco Nuvoloso 21 73 1016 vento: Nord E 16.7
25 Maggio 2019 11:20 tempo osservato: Sereno Sereno 21 73 1015 vento: Nord E 16.7
25 Maggio 2019 10:50 tempo osservato: Sereno Sereno 21 68 1015 vento: Nord E 13
25 Maggio 2019 10:20 tempo osservato: Sereno Sereno 21 73 1015 vento: Nord E 11.1
25 Maggio 2019 09:50 tempo osservato: Sereno Sereno 20 72 1015 vento: Nord E 11.1
25 Maggio 2019 09:20 tempo osservato: Sereno Sereno 19 82 1015 vento: Nord E/NE 11.1
25 Maggio 2019 08:50 tempo osservato: Sereno Sereno 19 82 1015 vento: Nord NE 9.3
25 Maggio 2019 08:20 tempo osservato: Sereno Sereno 19 77 1015 vento: Nord NE 9.3
25 Maggio 2019 07:50 tempo osservato: Sereno Sereno 18 82 1014 vento: Nord N 5.5
25 Maggio 2019 07:20 tempo osservato: Sereno Sereno 17 82 1015 vento: Nord N 3.7
25 Maggio 2019 06:50 tempo osservato: Sereno Sereno 16 87 1014 vento: Nord SO 7.4
25 Maggio 2019 06:20 tempo osservato: Sereno Sereno 15 87 1014 vento: Nord N 3.7
25 Maggio 2019 05:50 tempo osservato: Sereno Sereno 14 87 1014 vento: Nord N 3.7